Weather History for CWSK - April, 2013

Change the Weather History Date:

Monday, April 1, 2013

  Actual Average Record
Temperature  
Mean Temperature 51 °F -  
Max Temperature 65 °F - - ()
Min Temperature 37 °F - - ()
Degree Days  
Heating Degree Days 14    
Growing Degree Days 1 (Base 50)    
Moisture  
Dew Point 40 °F    
Average Humidity 70    
Maximum Humidity 95    
Minimum Humidity 31    
Precipitation  
Precipitation 0.00 in - - ()
Sea Level Pressure  
Sea Level Pressure 30.02 in    
Wind  
Wind Speed 3 mph ()    
Max Wind Speed 9 mph    
Max Gust Speed -    
T = Trace of Precipitation, MM = Missing Value Source: Averaged Metar Reports

Daily Weather History Graph

Daily Weather History Graph

Search for Another Location

Airport or City:

Trip Planner

Search our weather history database for the weather conditions in past years. The results will help you decide how hot, cold, wet, or windy it might be!

Date:

Astronomy

Apr. 01, 2013 Rise Set
Actual Time 6:48 AM PDT 7:44 PM PDT
Civil Twilight 6:16 AM PDT 8:17 PM PDT
Nautical Twilight 5:36 AM PDT 8:57 PM PDT
Astronomical Twilight 4:55 AM PDT 9:39 PM PDT
Moon 1:23 AM PDT (4/1) 10:15 AM PDT (4/1)
Length of Visible Light 14h 01m
Length of Day
12h 56m
Waning Gibbous, 66% of the Moon is Illuminated
Apr 1
Waning Gibbous
Apr 2
Last Quarter
Apr 10
New
Apr 18
First Quarter
Apr 25
Full

Hourly Weather History & Observations

Time (PDT) Temp. Windchill Dew Point Humidity Pressure Visibility Wind Dir Wind Speed Gust Speed Precip Events Conditions
12:00 AM 45.3 °F - 39.6 °F 80% 29.97 in - North 2.3 mph - N/A   Unknown
1:00 AM 43.3 °F - 39.4 °F 86% 29.98 in - NNE 1.2 mph - N/A   Unknown
2:00 AM 42 °F - 39 °F 83% 29.99 in - NNE 2.3 mph - -  
2:00 AM 42.4 °F - 38.7 °F 86% 29.99 in - NNE 2.3 mph - N/A   Unknown
3:00 AM 41.2 °F - 38.3 °F 89% 30.00 in - North 2.3 mph - N/A   Unknown
4:00 AM 40.8 °F - 37.8 °F 89% 30.00 in - North 2.3 mph - N/A   Unknown
5:00 AM 39 °F - 37 °F 91% 30.01 in - ENE 1.2 mph - -  
5:00 AM 39.0 °F - 37.2 °F 93% 30.01 in - ENE 1.2 mph - N/A   Unknown
6:00 AM 38.5 °F - 36.7 °F 93% 30.01 in - NNE 2.3 mph - N/A   Unknown
7:00 AM 37.8 °F - 36.3 °F 95% 30.03 in - NNE 2.3 mph - N/A   Unknown
8:00 AM 39 °F - 37 °F 92% 30.04 in - North 2.3 mph - -  
8:00 AM 38.8 °F - 37.4 °F 95% 30.04 in - North 2.3 mph - N/A   Unknown
9:00 AM 45.9 °F 44.6 °F 37.6 °F 73% 30.04 in - NNW 3.5 mph - N/A   Unknown
10:00 AM 51.1 °F - 37.2 °F 59% 30.04 in - SSW 1.2 mph - N/A   Unknown
11:00 AM 57 °F - 37 °F 36% 30.04 in - West 2.3 mph - -  
11:00 AM 56.8 °F - 37.2 °F 48% 30.04 in - West 2.3 mph - N/A   Unknown
12:00 PM 61.5 °F - 38.1 °F 42% 30.02 in - South 3.5 mph - N/A   Unknown
1:00 PM 61.9 °F - 38.8 °F 43% 30.02 in - SE 6.9 mph - N/A   Unknown
2:00 PM 64 °F - 41 °F 31% 30.01 in - SE 9.2 mph - -  
2:00 PM 64.4 °F - 40.6 °F 42% 30.01 in - SE 9.2 mph - N/A   Unknown
3:00 PM 64.9 °F - 43.7 °F 46% 30.00 in - SSE 6.9 mph - N/A   Unknown
4:00 PM 64.0 °F - 42.6 °F 46% 30.00 in - SSE 9.2 mph - N/A   Unknown
5:00 PM 64 °F - 44 °F 36% 30.00 in - SSE 8.1 mph - -  
5:00 PM 63.9 °F - 43.5 °F 48% 30.00 in - SSE 8.1 mph - N/A   Unknown
6:00 PM 60.6 °F - 43.9 °F 54% 30.01 in - SSE 6.9 mph - N/A   Unknown
7:00 PM 56.7 °F - 45.5 °F 66% 30.02 in - SSE 6.9 mph - N/A   Unknown
8:00 PM 54 °F - 46 °F 67% 30.04 in - SSE 4.6 mph - -  
8:00 PM 54.3 °F - 46.2 °F 74% 30.04 in - SSE 4.6 mph - N/A   Unknown
9:00 PM 50.5 °F - 46.0 °F 85% 30.07 in - East 1.2 mph - N/A   Unknown
10:00 PM 47.3 °F - 44.8 °F 91% 30.08 in - Calm Calm - N/A   Unknown
11:00 PM 45 °F - 44 °F 92% 30.09 in - SE 2.3 mph - -  
11:00 PM 45.3 °F - 43.5 °F 93% 30.09 in - SE 2.3 mph - N/A   Unknown